N1VFU Weather Reports


time (UTC)temp
F
wind
direction
speed
knots
gust
knots
rain 1hr
in
rain 24hr
in
rain mn
in
humidity
%
barometer
mb
20201126031729 34 179 0.0 0.0 0.06 0.07 0.07 93 1026.4
20201126031212 34 179 0.0 0.0 0.05 0.06 0.06 93 1026.7
20201126030730 34 179 0.0 0.0 0.04 0.05 0.05 93 1026.8
20201126030211 34 179 0.0 0.0 0.03 0.04 0.04 93 1026.6
20201126025719 34 179 0.0 0.0 0.03 0.04 0.04 93 1026.6
20201126025218 33 179 0.0 0.0 0.03 0.03 0.03 93 1026.6
20201126024719 33 179 0.0 0.0 0.02 0.02 0.03 93 1026.6
20201126024222 33 179 0.0 0.0 0.02 0.02 0.02 93 1026.6
20201126023722 33 179 0.0 0.0 0.02 0.02 0.02 93 1026.6
20201126023223 33 179 0.0 0.0 0.01 0.01 0.01 93 1026.7
20201126022723 33 179 0.0 0.0 0.01 0.01 0.01 92 1026.7
20201126022224 33 179 0.0 0.0 0.01 0.01 0.01 92 1026.6
20201126021735 33 179 0.0 0.0 0.01 0.01 0.01 92 1026.5
20201126021229 33 179 0.0 0.0 0.01 0.01 0.01 92 1026.4
20201126020728 33 179 0.0 0.0 0.01 0.01 0.01 92 1026.4
20201126020233 33 179 0.0 0.0 0.01 0.01 0.01 92 1026.4
20201126015712 33 179 0.0 0.0 0.01 0.01 0.01 91 1026.5
20201126015213 33 179 0.0 0.0 0.00 0.00 0.00 91 1026.5
20201126014720 33 179 0.0 0.0 0.00 0.00 0.00 91 1026.5
20201126014220 33 179 0.0 0.0 0.00 0.00 0.00 91 1026.5
20201126013716 33 179 0.0 0.0 0.00 0.00 0.00 90 1026.6
20201126013219 33 179 0.0 0.0 0.00 0.00 0.00 90 1026.5
20201126012721 33 179 0.0 0.0 0.00 0.00 0.00 90 1026.6
20201126012220 33 179 0.0 0.0 0.00 0.00 0.00 90 1026.6
20201126011729 33 179 0.0 0.0 0.00 0.00 0.00 89 1026.6
20201126011225 33 179 0.0 0.0 0.00 0.00 0.00 89 1026.5
20201126010731 33 179 0.0 0.0 0.00 0.00 0.00 88 1026.5
20201126010245 33 179 0.0 0.0 0.00 0.00 0.00 87 1026.5
20201126005740 33 179 0.0 0.0 0.00 0.00 0.00 87 1026.5
20201126005230 33 179 0.0 0.0 0.00 0.00 0.00 86 1026.6
20201126004737 33 179 0.0 0.0 0.00 0.00 0.00 85 1026.7
20201126004231 33 179 0.0 0.0 0.00 0.00 0.00 85 1026.7
20201126003718 33 179 0.0 0.0 0.00 0.00 0.00 84 1026.7
20201126003214 33 179 0.0 0.0 0.00 0.00 0.00 84 1026.7
20201126002713 33 179 0.0 0.0 0.00 0.00 0.00 83 1026.8
20201126002219 33 179 0.0 0.0 0.00 0.00 0.00 83 1026.9
20201126001714 33 179 0.0 0.0 0.00 0.00 0.00 83 1026.9
20201126001215 33 179 0.0 0.0 0.00 0.00 0.00 83 1026.9
20201126000716 33 179 0.0 0.0 0.00 0.00 0.00 83 1027.0
20201126000217 33 179 0.0 0.0 0.00 0.00 0.00 83 1026.9
20201125235717 33 179 0.0 0.0 0.00 0.00 0.00 83 1026.9
20201125235223 33 179 0.0 0.0 0.00 0.00 0.00 83 1027.0
20201125234725 33 179 0.0 0.0 0.00 0.00 0.00 83 1026.9
20201125234228 33 179 0.0 0.0 0.00 0.00 0.00 82 1026.9
20201125233728 33 179 0.0 0.0 0.00 0.00 0.00 81 1026.9
20201125233229 33 179 0.0 0.0 0.00 0.00 0.00 82 1027.0
20201125232729 33 179 0.0 0.0 0.00 0.00 0.00 82 1027.0
20201125232230 33 179 0.0 0.0 0.00 0.00 0.00 81 1027.0
20201125231729 33 179 0.0 0.0 0.00 0.00 0.00 81 1026.9
20201125231212 33 179 0.0 0.0 0.00 0.00 0.00 81 1026.9
20201125230712 33 179 0.0 0.0 0.00 0.00 0.00 81 1026.8
20201125230212 33 179 0.0 0.0 0.00 0.00 0.00 82 1026.8
20201125225713 33 179 0.0 0.0 0.00 0.00 0.00 81 1026.8
20201125225225 33 179 0.0 0.0 0.00 0.00 0.00 81 1026.9
20201125224725 33 179 0.0 0.0 0.00 0.00 0.00 81 1027.0
20201125224220 33 179 0.0 0.0 0.00 0.00 0.00 80 1027.0
20201125223720 33 179 0.0 0.0 0.00 0.00 0.00 81 1027.0
20201125223224 33 179 0.0 0.0 0.00 0.00 0.00 81 1027.0
20201125222722 33 179 0.0 0.0 0.00 0.00 0.00 80 1026.9
20201125221710 33 179 0.0 0.0 0.00 0.00 0.00 80 1027.1
20201125221212 33 179 0.0 0.0 0.00 0.00 0.00 80 1027.2
20201125220713 33 179 0.0 0.0 0.00 0.00 0.00 79 1027.1
20201125220212 33 179 0.0 0.0 0.00 0.00 0.00 78 1027.2
20201125215712 33 179 0.0 0.0 0.00 0.00 0.00 77 1027.2
20201125215222 33 179 0.0 0.0 0.00 0.00 0.00 77 1027.2
20201125214721 33 179 0.0 0.0 0.00 0.00 0.00 77 1027.2
20201125214221 33 179 0.0 0.0 0.00 0.00 0.00 78 1027.3
20201125213722 33 179 0.0 0.0 0.00 0.00 0.00 79 1027.2
20201125213227 34 179 0.0 0.0 0.00 0.00 0.00 77 1027.2
20201125212803 34 179 0.0 0.0 0.00 0.00 0.00 76 1027.2
20201125212224 34 179 0.0 0.0 0.00 0.00 0.00 75 1027.1
20201125211726 34 179 0.0 0.0 0.00 0.00 0.00 76 1027.2
20201125211221 34 179 0.0 0.0 0.00 0.00 0.00 76 1027.2
20201125210725 34 179 0.0 0.0 0.00 0.00 0.00 76 1027.2
20201125210222 34 179 0.0 0.0 0.00 0.00 0.00 76 1027.3
20201125205724 34 179 0.0 0.0 0.00 0.00 0.00 73 1027.4
20201125205221 34 179 0.0 0.0 0.00 0.00 0.00 72 1027.6
20201125204728 34 179 0.0 0.0 0.00 0.00 0.00 73 1027.3
20201125204221 34 179 0.0 0.0 0.00 0.00 0.00 71 1027.3
20201125203729 34 179 0.0 0.0 0.00 0.00 0.00 71 1027.2
20201125203227 34 179 0.0 0.0 0.00 0.00 0.00 72 1027.6
20201125202727 34 179 0.0 0.0 0.00 0.00 0.00 72 1027.6
20201125202229 34 179 0.0 0.0 0.00 0.00 0.00 72 1027.7
20201125201729 34 179 0.0 0.0 0.00 0.00 0.00 69 1027.6
20201125201228 34 179 0.0 0.0 0.00 0.00 0.00 69 1027.4
20201125200729 34 179 0.0 0.0 0.00 0.00 0.00 70 1027.5
20201125200230 34 179 0.0 0.0 0.00 0.00 0.00 69 1027.3
20201125195734 34 179 0.0 0.0 0.00 0.00 0.00 71 1027.2
20201125195230 34 179 0.0 0.0 0.00 0.00 0.00 70 1027.3
20201125194710 34 179 0.0 0.0 0.00 0.00 0.00 69 1027.3
20201125194231 34 179 0.0 0.0 0.00 0.00 0.00 68 1027.2
20201125193712 34 179 0.0 0.0 0.00 0.00 0.00 69 1027.2
20201125193211 34 179 0.0 0.0 0.00 0.00 0.00 69 1027.2
20201125192711 34 179 0.0 0.0 0.00 0.00 0.00 67 1027.1
20201125192212 34 179 0.0 0.0 0.00 0.00 0.00 67 1027.1
20201125191713 34 179 0.0 0.0 0.00 0.00 0.00 67 1027.2
20201125191213 34 179 0.0 0.0 0.00 0.00 0.00 66 1027.3
20201125190712 34 179 0.0 0.0 0.00 0.00 0.00 67 1027.4
20201125190214 34 179 0.0 0.0 0.00 0.00 0.00 66 1027.6
20201125185714 34 179 0.0 0.0 0.00 0.00 0.00 66 1027.7
20201125185216 34 179 0.0 0.0 0.00 0.00 0.00 66 1027.7
20201125184717 34 179 0.0 0.9 0.00 0.00 0.00 66 1027.8
20201125184217 33 179 0.0 0.9 0.00 0.00 0.00 66 1027.9
20201125183715 33 179 0.0 0.9 0.00 0.00 0.00 66 1028.0
20201125183221 33 179 0.0 0.9 0.00 0.00 0.00 65 1028.0
20201125182725 33 179 0.0 0.9 0.00 0.00 0.00 66 1028.1
20201125182231 33 179 0.0 0.9 0.00 0.00 0.00 67 1028.1
20201125181711 33 179 0.0 0.9 0.00 0.00 0.00 69 1028.4
20201125181212 33 179 0.9 1.7 0.00 0.00 0.00 68 1028.3
20201125180715 33 179 0.0 1.7 0.00 0.00 0.00 67 1028.4
20201125180216 33 179 0.0 0.9 0.00 0.00 0.00 68 1028.3
20201125175714 33 179 0.0 0.0 0.00 0.00 0.00 67 1028.4
20201125175229 33 179 0.0 0.0 0.00 0.00 0.00 66 1028.3
20201125174719 32 179 0.0 0.0 0.00 0.00 0.00 66 1028.2
20201125174217 32 179 0.0 0.0 0.00 0.00 0.00 67 1028.4
20201125173716 32 179 0.0 0.9 0.00 0.00 0.00 68 1028.4
20201125173222 32 179 0.0 0.9 0.00 0.00 0.00 69 1028.8
20201125172722 32 179 0.0 0.9 0.00 0.00 0.00 68 1029.0
20201125172229 32 179 0.0 1.7 0.00 0.00 0.00 68 1029.3
20201125171722 32 179 0.0 1.7 0.00 0.00 0.00 69 1029.4
20201125171224 32 179 0.9 1.7 0.00 0.00 0.00 67 1029.3
20201125170725 32 179 0.0 1.7 0.00 0.00 0.00 66 1029.3
20201125170223 32 179 0.0 0.9 0.00 0.00 0.00 68 1029.3
20201125165725 32 179 0.0 0.9 0.00 0.00 0.00 67 1029.3
20201125165227 32 179 0.0 0.9 0.00 0.00 0.00 67 1029.5
20201125164724 31 179 0.0 4.3 0.00 0.00 0.00 67 1029.6
20201125164227 31 179 0.9 4.3 0.00 0.00 0.00 65 1030.0
20201125163727 32 179 1.7 3.5 0.00 0.00 0.00 65 1030.2
20201125163227 32 179 0.0 1.7 0.00 0.00 0.00 67 1030.2
20201125162710 32 179 0.0 0.0 0.00 0.00 0.00 67 1030.1
20201125162232 32 179 0.0 0.0 0.00 0.00 0.00 67 1030.2
20201125161729 32 179 0.0 0.0 0.00 0.00 0.00 67 1030.2
20201125161230 32 179 0.0 0.0 0.00 0.00 0.00 69 1030.2
20201125160728 32 179 0.0 0.0 0.00 0.00 0.00 69 1030.4
20201125155712 32 179 0.0 0.0 0.00 0.00 0.00 71 1030.7
20201125155214 32 179 0.0 0.0 0.00 0.00 0.00 70 1030.6
20201125154711 32 179 0.0 0.0 0.00 0.00 0.00 71 1030.7
20201125154215 31 179 0.0 0.0 0.00 0.00 0.00 72 1030.9
20201125153730 31 179 0.0 0.0 0.00 0.00 0.00 72 1030.9
20201125153229 31 179 0.0 0.0 0.00 0.00 0.00 72 1031.1
20201125152713 31 179 0.0 0.0 0.00 0.00 0.00 73 1031.4
20201125152231 31 179 0.0 0.0 0.00 0.00 0.00 72 1031.5
20201125151729 30 179 0.0 0.0 0.00 0.00 0.00 73 1031.5
20201125151229 30 179 0.0 0.0 0.00 0.00 0.00 73 1031.6
20201125150715 30 179 0.0 0.0 0.00 0.00 0.00 73 1031.8
20201125150215 30 179 0.0 0.9 0.00 0.00 0.00 74 1031.9
20201125145712 30 179 0.0 1.7 0.00 0.00 0.00 74 1031.9
20201125145213 30 179 0.0 1.7 0.00 0.00 0.00 74 1031.9
20201125144714 30 179 0.0 1.7 0.00 0.00 0.00 74 1031.7
20201125144215 30 179 0.0 1.7 0.00 0.00 0.00 74 1031.7
20201125143713 30 179 0.0 1.7 0.00 0.00 0.00 75 1031.7
20201125143215 29 179 0.0 1.7 0.00 0.00 0.00 75 1031.9
20201125142716 29 179 0.0 0.0 0.00 0.00 0.00 75 1031.8
20201125142221 29 179 0.0 0.0 0.00 0.00 0.00 75 1032.0
20201125141722 29 179 0.0 0.0 0.00 0.00 0.00 75 1032.2
20201125141223 29 179 0.0 0.0 0.00 0.00 0.00 75 1032.4
20201125140720 29 179 0.0 0.0 0.00 0.00 0.00 75 1032.8
20201125140222 29 179 0.0 0.0 0.00 0.00 0.00 75 1032.9
20201125135722 29 179 0.0 0.0 0.00 0.00 0.00 75 1032.9
20201125135225 28 179 0.0 0.9 0.00 0.00 0.00 76 1032.8
20201125134735 28 179 0.0 0.9 0.00 0.00 0.00 76 1033.0
20201125134224 28 179 0.0 0.0 0.00 0.00 0.00 76 1032.8
20201125133722 28 179 0.0 0.0 0.00 0.00 0.00 76 1032.9
20201125133227 28 179 0.0 0.0 0.00 0.00 0.00 76 1033.1
20201125132724 28 179 0.0 0.0 0.00 0.00 0.00 76 1033.2
20201125132228 28 179 0.0 0.0 0.00 0.00 0.00 76 1033.2
20201125131730 28 179 0.0 0.0 0.00 0.00 0.00 76 1033.3
20201125131308 28 179 0.0 0.9 0.00 0.00 0.00 77 1033.2
20201125130726 28 179 0.0 0.9 0.00 0.00 0.00 77 1033.2
20201125130231 27 179 0.0 0.0 0.00 0.00 0.00 77 1033.2
20201125125726 27 179 0.0 0.0 0.00 0.00 0.00 77 1033.0
20201125125228 27 179 0.0 0.0 0.00 0.00 0.00 77 1033.0
20201125124728 27 179 0.0 0.0 0.00 0.00 0.00 77 1033.0
20201125124233 27 179 0.0 0.0 0.00 0.00 0.00 77 1033.1
20201125123732 27 179 0.0 0.0 0.00 0.00 0.00 77 1033.0
20201125123232 27 179 0.0 0.0 0.00 0.00 0.00 77 1033.0
20201125122713 27 179 0.0 0.0 0.00 0.00 0.00 77 1033.1
20201125122215 27 179 0.0 0.0 0.00 0.00 0.00 77 1033.2
20201125121712 27 179 0.0 0.0 0.00 0.00 0.00 78 1033.4
20201125121218 27 179 0.0 0.0 0.00 0.00 0.00 77 1033.3
20201125120721 27 179 0.0 0.0 0.00 0.00 0.00 77 1033.2
20201125120216 27 179 0.0 0.0 0.00 0.00 0.00 76 1033.1
20201125115714 27 179 0.0 0.0 0.00 0.00 0.00 76 1033.0
20201125115216 27 179 0.0 0.0 0.00 0.00 0.00 76 1033.1
20201125114716 27 179 0.0 0.9 0.00 0.00 0.00 77 1033.2
20201125114219 27 179 0.0 1.7 0.00 0.00 0.00 77 1033.2
20201125113716 27 179 0.0 2.6 0.00 0.00 0.00 78 1033.3
20201125113217 26 179 0.9 3.5 0.00 0.00 0.00 77 1033.4
20201125112717 26 179 0.9 3.5 0.00 0.00 0.00 77 1033.3
20201125112217 26 179 0.0 0.9 0.00 0.00 0.00 77 1033.5
20201125111718 26 179 0.0 0.9 0.00 0.00 0.00 77 1033.6
20201125111221 26 179 0.0 0.9 0.00 0.00 0.00 77 1033.6
20201125110719 26 179 0.0 0.0 0.00 0.00 0.00 77 1033.7